Theta_e
313 314 314 314 314 315 316 317 317 317 316 315 314 314 314 314 313 313 314 315 314 321 322 320 321 321 325 326 326 321 322 323 328 341 341 337 332 330 333 342 340 341 338 335 336
313 314 313 313 314 315 315 316 317 317 316 315 314 314 314 313 313 317 316 317 320 318 317 322 322 324 323 324 323 320 319 322 324 337 338 336 332 332 339 343 342 339 336 335 338
312 312 312 313 313 314 315 316 317 316 316 315 314 315 314 314 326 329 318 321 321 319 317 320 322 323 325 321 320 320 322 323 325 328 335 328 328 332 340 342 342 339 336 335 335
311 311 312 313 313 314 315 316 317 317 317 315 315 315 314 318 330 325 328 323 320 319 315 316 317 321 321 320 319 321 320 321 324 327 333 325 326 336 337 338 340 337 336 336 335
310 311 312 313 314 314 315 316 317 317 317 315 314 314 316 324 317 322 326 320 318 316 314 316 320 320 321 319 319 320 320 321 324 324 322 325 327 326 334 338 340 338 337 337 335
310 312 313 312 313 314 315 317 317 318 317 315 312 313 319 316 325 324 321 320 319 314 315 316 320 318 319 319 317 318 318 318 323 324 324 326 325 326 338 339 339 338 337 336 335
311 311 311 310 312 313 315 318 318 319 316 315 312 318 324 317 322 315 314 314 313 314 319 319 321 321 318 319 318 319 320 318 322 323 324 324 325 324 339 339 339 338 337 336 334
308 308 308 308 310 312 315 318 319 320 316 314 313 321 320 324 322 316 315 315 317 314 320 321 321 317 319 319 317 319 317 318 319 321 323 323 323 330 339 339 339 338 337 336 334
305 305 306 308 309 312 316 319 321 317 317 316 324 324 325 324 317 321 318 319 320 319 319 320 319 318 317 316 314 314 318 318 318 319 321 323 322 324 338 338 338 336 336 335 334
304 305 307 309 309 312 318 321 323 318 323 322 323 323 323 322 322 321 322 321 319 318 316 317 311 314 311 313 316 317 318 317 317 318 320 319 322 326 338 337 337 335 335 334 333
305 306 308 309 310 312 320 323 316 319 322 325 327 323 324 327 324 322 322 321 320 316 315 315 313 313 314 314 316 316 317 318 317 319 319 318 320 322 329 334 333 337 335 333 332
305 306 308 309 310 318 322 321 322 321 319 320 324 324 325 326 325 322 323 320 318 316 315 313 313 313 314 315 316 316 318 318 317 318 320 319 321 318 319 319 319 321 336 335 332
305 306 307 309 313 323 318 321 323 322 318 320 320 320 320 322 325 322 319 318 317 316 314 312 315 317 316 317 319 317 318 318 318 318 318 320 319 320 320 319 319 321 325 332 334
303 305 307 309 318 315 321 322 323 323 320 323 323 323 321 320 321 325 322 320 318 315 314 313 314 317 318 318 317 320 319 321 322 318 317 320 319 318 319 320 320 327 334 333 333
303 305 307 308 311 317 321 323 323 322 325 328 324 323 318 319 320 321 323 321 320 321 320 319 323 317 320 320 320 319 319 321 323 320 319 319 318 317 319 320 328 338 340 340 338
304 307 308 310 311 318 321 323 323 323 319 327 321 320 319 319 320 322 322 322 321 321 321 322 323 324 320 322 321 320 321 318 317 316 319 319 319 318 327 329 335 340 340 341 341
305 309 309 309 314 320 321 321 327 327 324 326 321 320 319 319 320 323 323 322 321 325 323 323 324 323 323 322 319 318 316 318 321 320 321 322 330 338 336 336 337 340 338 338 339
306 310 311 312 315 319 322 323 332 330 328 325 324 321 319 319 319 323 324 322 321 322 323 324 325 325 323 320 319 319 317 318 323 324 324 327 338 341 336 334 332 332 332 330 331
307 311 316 319 323 320 319 327 327 328 327 326 324 322 320 320 321 322 322 323 322 321 324 327 328 326 322 323 321 323 321 318 319 322 324 332 340 339 336 334 332 331 329 327 326
308 313 317 322 324 322 322 326 327 326 326 325 325 326 327 328 326 320 320 323 324 324 322 328 327 327 326 323 322 322 322 323 320 327 329 328 335 342 338 335 332 329 327 325 324
313 314 322 324 324 320 325 325 327 326 327 325 325 324 327 329 328 324 321 327 328 327 323 324 324 326 326 327 326 324 321 324 320 322 325 329 343 338 337 334 332 330 327 324 323
308 312 322 324 321 321 324 326 326 328 328 325 324 324 326 329 330 331 328 327 327 329 330 332 324 329 328 328 326 324 326 323 324 327 327 325 332 336 333 331 330 327 320 320 322
305 310 318 318 320 319 321 323 323 327 328 326 327 327 328 328 329 331 328 327 329 330 332 331 326 325 323 320 324 328 328 328 323 323 327 327 334 336 333 328 324 321 318 319 319
306 316 317 314 315 321 323 326 326 326 325 324 325 325 326 328 328 330 328 328 326 325 329 329 327 323 323 326 326 327 328 328 326 328 329 327 341 326 323 319 317 317 316 316 315
307 317 317 321 321 319 321 325 324 325 324 323 324 325 325 329 331 330 331 327 325 324 329 325 329 330 330 329 328 327 327 325 325 329 329 328 331 322 318 316 316 316 316 316 316
311 314 312 316 316 317 318 322 325 324 323 326 327 326 325 327 327 327 330 328 329 325 331 325 331 328 327 328 325 325 324 323 322 321 321 324 322 317 315 316 316 316 316 316 316
309 312 311 315 317 319 318 320 323 323 324 323 325 326 325 325 323 322 321 322 324 329 330 327 326 326 329 326 324 325 323 323 323 322 321 323 319 316 315 317 315 315 316 318 318
Wind_Speed
23 23 25 27 26 27 27 26 27 27 20 20 17 14 12 13 10 8 7 8 8 11 11 11 10 10 5 3 6 3 2 4 6 7 6 4 3 2 4 9 1 5 7 20 33
24 24 27 29 28 28 27 27 28 24 21 21 18 14 11 11 8 12 13 11 8 14 12 13 6 7 2 4 4 5 5 9 11 7 7 5 5 9 6 7 6 8 17 27 34
26 26 29 30 29 28 28 27 29 23 22 21 17 12 8 5 3 7 11 17 11 16 9 12 7 4 3 1 4 6 8 4 14 15 12 5 6 4 13 1 12 21 22 19 25
28 29 31 31 30 29 29 28 29 23 22 19 15 10 2 1 2 3 9 16 14 16 9 6 4 4 4 5 4 5 7 7 15 18 8 8 5 9 8 10 16 23 24 20 17
29 30 31 32 31 31 31 28 30 22 21 15 12 3 3 1 8 5 11 17 17 14 9 6 6 7 4 4 4 6 7 6 12 10 7 7 6 5 7 16 19 16 18 20 16
29 31 32 34 33 32 32 29 28 22 18 11 7 4 2 2 4 9 15 17 15 16 10 8 7 6 5 2 2 4 7 10 5 3 3 5 6 6 4 21 19 20 19 19 19
30 31 33 35 34 33 32 30 25 20 10 6 1 3 1 11 4 13 14 16 17 19 6 16 7 3 3 6 2 5 6 9 3 2 4 3 8 7 16 20 21 20 19 20 20
31 32 34 35 34 34 33 31 25 12 4 2 3 1 6 3 9 14 12 9 12 15 14 12 14 7 5 3 8 6 4 5 8 9 7 8 9 5 20 21 21 20 18 18 20
31 33 35 34 35 33 34 28 15 2 1 1 1 2 7 4 15 16 14 8 17 17 21 18 2 2 6 4 6 6 2 6 10 5 5 4 10 6 21 23 21 19 19 18 17
33 34 34 35 35 35 30 21 3 3 2 1 3 3 6 7 11 17 16 13 5 3 4 3 6 3 4 5 3 5 3 4 5 9 2 5 12 4 26 19 19 22 18 18 18
34 35 35 36 34 33 22 4 5 2 3 7 4 4 6 7 15 13 20 7 5 5 3 2 5 5 11 9 8 4 0 4 6 6 3 5 3 2 11 9 10 15 15 19 20
35 36 37 36 38 16 9 3 5 5 7 11 16 11 24 14 3 11 18 5 4 5 2 5 7 12 4 3 5 7 6 6 7 7 2 6 5 6 4 6 9 13 21 21 15
36 36 38 35 24 4 19 9 14 6 2 8 7 6 7 10 11 10 10 6 4 4 6 6 8 7 7 6 6 5 7 6 8 5 4 2 7 5 8 5 5 8 6 14 19
36 36 38 39 4 21 10 20 21 9 4 7 5 6 4 5 2 13 17 7 4 10 5 7 9 7 6 7 8 4 4 2 5 2 3 4 5 6 7 9 9 6 9 3 20
37 37 34 22 17 8 9 19 20 3 3 4 5 7 8 10 3 5 20 3 9 5 3 8 6 7 6 8 4 8 2 3 1 3 3 7 3 8 6 8 6 9 16 16 12
40 35 34 10 10 8 14 18 5 5 5 4 6 6 6 3 3 3 8 0 3 5 3 10 5 4 7 4 5 5 5 7 5 3 4 6 5 5 7 6 9 15 17 20 21
42 34 29 15 5 7 15 4 4 3 6 2 4 6 7 5 5 5 9 7 5 1 4 7 6 4 4 2 6 7 7 4 4 4 5 4 7 4 6 13 11 19 17 17 17
41 32 18 21 11 5 5 4 2 4 3 6 5 6 8 6 6 9 8 6 6 4 1 2 8 4 3 7 7 6 8 6 5 3 5 4 5 3 5 15 17 16 15 17 17
38 21 12 2 3 7 5 2 6 4 4 8 4 6 4 7 6 6 9 11 9 9 7 4 5 9 13 5 8 2 3 7 6 1 3 1 4 4 4 14 17 17 17 16 17
28 13 10 11 9 5 4 5 4 4 9 3 5 4 3 4 3 4 9 5 7 11 8 6 1 5 5 7 5 4 4 3 3 4 3 4 3 6 5 12 14 14 13 9 11
9 4 5 14 12 4 2 6 5 10 9 3 3 3 3 2 2 2 8 2 1 4 8 5 3 5 4 3 0 5 4 6 5 4 5 2 4 3 5 9 13 11 9 8 8
9 3 9 8 3 0 2 4 4 15 15 3 1 0 3 3 5 4 4 4 7 2 4 1 5 3 4 2 3 3 2 4 5 3 0 4 3 5 6 7 9 13 13 12 14
4 4 7 5 2 3 6 7 6 10 8 3 4 4 4 2 3 2 3 6 8 5 4 0 2 3 8 6 7 5 5 4 5 3 4 5 3 2 3 10 7 9 10 11 11
3 3 4 4 2 1 5 5 6 8 2 3 2 4 6 4 4 1 2 5 5 4 4 7 4 5 6 3 3 3 5 4 5 3 3 4 10 4 4 9 8 10 9 8 7
1 3 2 4 4 5 3 4 5 6 6 3 4 3 2 1 4 5 6 4 6 4 4 5 4 2 1 1 1 1 5 2 3 3 3 5 7 7 5 7 7 7 7 9 8
1 3 5 4 5 5 4 3 3 4 3 3 7 10 12 6 4 0 1 3 2 4 3 3 2 2 6 6 7 4 7 6 5 2 3 14 10 5 4 8 8 7 7 7 6
6 6 3 4 6 3 3 7 9 7 6 7 7 6 8 3 3 4 3 1 1 2 2 3 4 3 1 5 5 5 6 5 6 4 3 7 8 5 8 10 6 7 8 8 8
Wind_Direction
356 353 353 350 348 346 346 343 342 341 335 332 327 315 314 309 294 281 239 230 191 156 153 147 168 186 189 225 181 117 24 253 244 218 232 260 220 12 18 119 284 172 138 149 133
353 351 350 349 348 345 344 342 341 339 334 332 329 319 314 312 303 251 247 188 203 182 166 153 169 170 212 224 185 141 164 237 216 204 245 222 183 149 92 105 42 78 116 145 130
351 349 348 348 346 343 341 339 341 337 332 330 325 327 321 328 317 249 172 177 183 191 186 183 140 152 214 320 219 194 217 223 267 248 222 261 162 116 123 266 162 150 152 155 154
351 348 347 344 343 341 339 337 341 334 329 326 325 332 334 9 237 285 188 181 179 188 184 150 133 170 229 209 204 251 243 223 257 261 193 168 177 139 162 187 157 158 159 156 171
348 345 342 342 341 339 336 335 339 331 326 321 326 350 133 55 250 243 168 167 180 191 181 158 167 185 226 207 333 213 272 264 245 253 281 167 195 149 178 140 152 155 164 163 173
344 343 342 342 340 336 334 332 337 329 321 315 336 131 125 270 261 204 178 180 191 181 188 177 205 202 279 275 158 274 287 287 238 227 217 192 241 109 159 144 151 161 175 174 175
342 342 340 339 338 336 332 330 333 327 314 315 58 114 84 235 232 181 179 185 188 188 179 216 226 166 285 309 227 268 336 329 315 349 294 101 312 170 158 151 158 176 182 181 181
341 341 339 338 338 335 330 329 327 320 313 341 116 102 245 298 206 175 171 202 204 207 230 270 257 199 201 287 3 348 52 7 299 354 301 89 280 109 158 154 176 185 189 189 187
343 341 340 339 338 335 327 331 331 18 76 90 93 92 270 129 172 190 177 195 205 223 238 261 37 118 22 61 7 7 286 324 320 347 274 137 263 227 176 173 179 182 190 192 198
343 342 340 339 338 335 326 337 27 99 108 344 272 341 270 213 187 194 197 218 212 181 6 60 43 53 34 69 213 259 323 295 284 292 277 319 239 248 180 175 177 196 187 193 199
344 342 339 338 338 335 332 9 13 6 167 210 192 246 282 249 183 183 208 186 217 85 163 316 80 201 212 190 215 222 312 283 269 264 268 301 299 249 166 181 179 201 197 194 205
344 342 338 337 337 338 6 12 247 275 305 238 250 246 257 265 223 181 199 152 127 200 142 14 230 228 232 263 247 241 254 265 278 273 57 329 307 293 250 205 206 181 199 201 191
343 342 339 336 338 31 329 310 345 343 330 289 218 209 219 168 195 198 146 174 173 199 191 173 238 197 188 255 253 227 186 223 232 323 326 328 328 330 302 297 273 53 157 182 184
342 341 339 339 11 336 299 342 356 354 41 275 202 244 172 143 278 192 183 141 200 211 195 222 266 226 229 227 179 186 214 300 332 27 243 38 270 294 294 306 59 41 55 120 187
339 338 336 337 305 304 319 339 338 60 7 165 170 180 154 151 202 187 177 121 213 225 127 252 298 225 227 203 154 229 205 246 206 60 64 322 38 270 348 24 96 80 76 67 75
336 334 332 330 292 296 337 332 2 50 262 223 163 153 127 195 262 61 160 58 211 197 217 249 240 233 210 178 176 141 65 39 44 57 6 258 135 338 341 137 119 85 77 80 85
333 329 320 293 242 303 326 17 50 155 303 194 191 144 169 170 227 168 172 209 177 100 317 325 296 279 221 108 17 78 60 7 357 15 224 66 68 307 357 67 80 93 81 79 83
329 329 315 280 267 310 1 57 205 260 275 300 161 149 180 188 237 172 152 200 259 125 89 234 322 192 202 166 179 182 144 150 190 201 257 6 140 140 97 82 84 78 84 82 82
332 329 307 231 178 192 77 106 214 237 335 325 3 147 250 216 193 155 182 201 202 170 167 192 267 284 159 145 127 194 178 180 107 320 74 176 63 51 106 89 84 87 86 82 87
333 323 286 153 163 126 77 233 259 289 319 340 52 48 75 349 22 176 193 231 196 196 155 219 275 335 29 62 25 138 171 68 9 127 182 275 181 185 158 111 101 97 91 89 93
341 353 312 172 168 56 171 238 284 278 296 353 28 343 32 15 235 280 212 21 138 130 136 155 109 296 39 80 194 352 357 60 116 116 159 156 269 215 150 124 111 108 102 94 70
354 335 117 145 48 174 196 215 292 295 312 289 111 296 19 8 352 34 23 30 328 134 107 22 132 137 206 263 245 166 9 118 113 237 97 138 291 358 145 120 93 88 90 79 81
335 271 326 175 189 268 289 287 279 281 254 93 30 35 28 323 68 34 30 358 27 61 130 255 28 49 341 358 6 48 16 48 102 85 195 139 189 27 69 81 78 100 80 88 82
344 341 314 34 127 51 347 290 312 321 102 112 111 50 38 354 4 327 117 24 27 52 69 90 81 140 185 177 211 334 331 63 97 105 208 200 133 45 78 92 73 81 90 93 88
182 268 7 323 331 328 277 273 317 351 338 78 37 23 264 334 41 4 12 28 12 356 35 82 95 59 98 151 344 271 297 344 141 181 156 149 128 180 171 105 104 104 80 63 49
34 21 345 291 298 340 312 285 290 318 357 334 93 66 64 80 40 295 172 39 53 325 64 14 171 102 355 20 22 324 297 295 259 153 130 113 110 182 133 109 85 72 71 61 43
329 333 110 285 327 355 41 315 318 296 29 40 140 97 60 354 270 246 298 252 269 173 132 103 117 79 243 352 21 328 276 228 78 10 181 154 158 172 92 90 79 63 49 40 33